Starlink 1234

operational
NORAD ID: 45190 Int'l Des: 2020-012 Owner: SPXS Country: US Constellation: starlink
LEOCIRCULARSTARLINK_TYPE

关于 Starlink 1234

正在加载描述...

实时位置

正在加载3D地球...

即将过境

高度历史

Altitude vs Time

uPlot chart will show altitude changes over time

两行轨道根数

1 45190U 20012N 25351.27641543 .00092137 00000-0 19789-2 0 9990
2 45190 53.0511 2.5631 0008398 13.2148 346.9076 15.43914316323077
Epoch: Dec 17, 2025 • Age: 20 hours

当前状态

高度 451.7 km
速度 7.64 km/s
星下点 -50.75°S, 167.82°E
发射日期 Feb 17, 2020
运行时间 5.8 years
类型 internet

技术详情

分类 Payload
质量 260.00 kg
干质量 248.00 kg
总质量 260.00 kg
长度 0.20 m
直径 2.80 m
跨度 9.00 m
形状 Box + pan
制造商 SPXS
平台类型 Starlink
阶段状态 In Orbit
所有者/国家 SPXS/US

大型星座

Loading constellations...